TimeEDT,TemperatureF,Dew PointF,Humidity,Sea Level PressureIn,VisibilityMPH,Wind Direction,Wind SpeedMPH,Gust SpeedMPH,PrecipitationIn,Events,Conditions,WindDirDegrees,DateUTC
12:53 AM,42.1,30.0,62,29.94,10.0,WNW,6.9,-,N/A,,Partly Cloudy,290,2013-10-24 04:53:00
1:53 AM,39.9,30.0,68,29.95,10.0,WSW,4.6,-,N/A,,Mostly Cloudy,250,2013-10-24 05:53:00
2:53 AM,37.9,30.9,76,29.96,10.0,South,5.8,-,N/A,,Scattered Clouds,180,2013-10-24 06:53:00
3:53 AM,37.9,30.9,76,29.96,10.0,WSW,4.6,-,N/A,,Overcast,240,2013-10-24 07:53:00
4:53 AM,37.9,30.9,76,29.97,10.0,SW,5.8,-,N/A,,Overcast,220,2013-10-24 08:53:00
5:53 AM,39.9,33.1,77,29.99,10.0,WSW,8.1,-,N/A,,Overcast,250,2013-10-24 09:53:00
6:40 AM,39.2,33.8,81,30.00,6.0,SW,5.8,16.1,0.01,Rain,Light Rain,230,2013-10-24 10:40:00
6:53 AM,39.0,34.0,82,30.01,10.0,SW,5.8,-,0.01,Rain,Light Rain,220,2013-10-24 10:53:00
7:53 AM,37.0,32.0,82,30.03,10.0,SW,3.5,-,0.00,,Partly Cloudy,220,2013-10-24 11:53:00
8:53 AM,39.9,34.0,79,30.05,10.0,Calm,Calm,-,N/A,,Overcast,0,2013-10-24 12:53:00
9:53 AM,41.0,32.0,70,30.06,10.0,WSW,10.4,-,N/A,,Overcast,240,2013-10-24 13:53:00
10:53 AM,43.0,32.0,65,30.06,10.0,WSW,12.7,-,N/A,,Overcast,250,2013-10-24 14:53:00
11:53 AM,42.1,30.9,65,30.06,10.0,NW,11.5,-,0.00,,Overcast,310,2013-10-24 15:53:00
12:53 PM,44.1,33.1,65,30.05,10.0,WNW,6.9,-,0.00,,Overcast,290,2013-10-24 16:53:00
1:53 PM,43.0,28.9,58,30.05,10.0,West,10.4,-,0.00,,Overcast,270,2013-10-24 17:53:00
2:53 PM,48.9,28.0,44,30.04,10.0,West,11.5,18.4,N/A,,Overcast,270,2013-10-24 18:53:00
3:53 PM,46.9,26.1,44,30.06,10.0,West,19.6,-,N/A,,Scattered Clouds,260,2013-10-24 19:53:00
4:53 PM,46.0,26.1,46,30.06,10.0,West,10.4,-,N/A,,Scattered Clouds,280,2013-10-24 20:53:00
5:53 PM,42.1,28.0,58,30.07,10.0,WSW,8.1,-,N/A,,Clear,250,2013-10-24 21:53:00
6:53 PM,41.0,28.9,62,30.10,10.0,West,8.1,-,N/A,,Overcast,270,2013-10-24 22:53:00
7:53 PM,42.1,27.0,55,30.11,10.0,West,9.2,-,N/A,,Clear,270,2013-10-24 23:53:00
8:53 PM,41.0,28.0,60,30.12,10.0,West,11.5,-,N/A,,Mostly Cloudy,270,2013-10-25 00:53:00
9:53 PM,39.0,28.9,67,30.14,10.0,WSW,5.8,-,N/A,,Clear,240,2013-10-25 01:53:00
10:53 PM,37.9,28.9,70,30.15,10.0,WSW,9.2,-,N/A,,Clear,240,2013-10-25 02:53:00
11:53 PM,37.9,28.0,68,30.16,10.0,SW,6.9,-,N/A,,Clear,230,2013-10-25 03:53:00